Orbital Elements at Epoch 2459000.5 (2020-May-31.0) TDB
Reference: JPL 17 (heliocentric ecliptic J2000)
Element | Value | Uncertainty (1-sigma) | Units |
e | .1025655509300214 | 4.1721e-08 | |
a | 2.295961728381704 | 1.3126e-08 | au |
q | 2.06047514879599 | 9.8227e-08 | au |
i | 6.886220451892012 | 4.48e-06 | deg |
node | 256.5714242952879 | 4.5296e-05 | deg |
peri | .451726721436943 | 5.3002e-05 | deg |
M | 291.9758310609781 | 2.9429e-05 | deg |
tp | 2459240.607727552490 (2021-Jan-26.10772755) | 0.00010475 | TDB |
period | 1270.70691589605 3.48 | 1.0897e-05 2.983e-08 | d yr |
n | .2833068707634622 | 2.4296e-09 | deg/d |
Q | 2.531448307967417 | 1.4473e-08 | au |
|
| | Orbit Determination Parameters
Additional Information
|